Weather History for Las Vegas, NM

Change the Weather History Date:

Monday, March 11, 2013

  Actual Average Record
Temperature  
Mean Temperature 40 °F -  
Max Temperature 62 °F 52 °F 78 °F (1989)
Min Temperature 19 °F 26 °F -16 °F (1948)
Degree Days  
Heating Degree Days 25    
Moisture  
Dew Point 10 °F    
Average Humidity 32    
Maximum Humidity 58    
Minimum Humidity 12    
Precipitation  
Precipitation 0.00 in - - ()
Sea Level Pressure  
Sea Level Pressure 29.95 in    
Wind  
Wind Speed 6 mph (WNW)    
Max Wind Speed 20 mph    
Max Gust Speed 26 mph    
Visibility 10 miles    
Events      
Averages and records for this station are not official NWS values.
T = Trace of Precipitation, MM = Missing Value Source: NWS Daily Summary

Daily Weather History Graph

Daily Weather History Graph

Search for Another Location

Airport:

Trip Planner

Search our weather history database for the weather conditions in past years. The results will help you decide how hot, cold, wet, or windy it might be!

Date:

Astronomy

Mar. 11, 2013 Rise Set
Actual Time 7:16 AM MDT 7:04 PM MDT
Civil Twilight 6:51 AM MDT 7:30 PM MDT
Nautical Twilight 6:21 AM MDT 7:59 PM MDT
Astronomical Twilight 5:51 AM MDT 8:29 PM MDT
Moon 6:52 AM MDT (3/11) 7:17 PM MDT (3/11)
Length of Visible Light 12h 39m
Length of Day
11h 48m
Waning Crescent, 0% of the Moon is Illuminated
Mar 11
Waning Crescent
Mar 11
New
Mar 19
First Quarter
Mar 27
Full
Apr 2
Last Quarter

Hourly Weather History & Observations

Time (MDT) Temp. Windchill Dew Point Humidity Pressure Visibility Wind Dir Wind Speed Gust Speed Precip Events Conditions
12:53 AM 21.9 °F 13.4 °F 9.0 °F 58% 30.11 in 10.0 mi South 6.9 mph - N/A   Clear
1:53 AM 19.0 °F 11.1 °F 6.1 °F 57% 30.14 in 10.0 mi North 5.8 mph - N/A   Clear
2:53 AM 28.9 °F - 8.1 °F 41% 30.06 in 10.0 mi Calm Calm - N/A   Clear
3:53 AM 28.0 °F 22.8 °F 8.1 °F 43% 30.02 in 10.0 mi WNW 4.6 mph - N/A   Clear
4:53 AM 28.0 °F 20.8 °F 9.0 °F 45% 30.00 in 10.0 mi NW 6.9 mph - N/A   Clear
5:53 AM 28.9 °F 25.2 °F 10.9 °F 47% 29.98 in 10.0 mi NW 3.5 mph - N/A   Clear
6:53 AM 27.0 °F 23.0 °F 9.0 °F 47% 30.00 in 10.0 mi WNW 3.5 mph - N/A   Clear
7:53 AM 28.0 °F 21.7 °F 10.9 °F 49% 30.03 in 10.0 mi NNW 5.8 mph - N/A   Clear
8:53 AM 36.0 °F 33.3 °F 12.0 °F 37% 30.03 in 10.0 mi NNE 3.5 mph - N/A   Clear
9:53 AM 43.0 °F 41.3 °F 12.0 °F 28% 30.00 in 10.0 mi WNW 3.5 mph - N/A   Clear
10:53 AM 48.9 °F - 7.0 °F 18% 29.96 in 10.0 mi Calm Calm - N/A   Clear
11:53 AM 53.1 °F - 10.9 °F 19% 29.94 in 10.0 mi SW 11.5 mph 18.4 mph 0.00 in   Clear
12:53 PM 57.9 °F - 7.0 °F 13% 29.92 in 10.0 mi West 9.2 mph - N/A   Clear
1:53 PM 57.9 °F - 6.1 °F 13% 29.90 in 10.0 mi SW 11.5 mph 18.4 mph N/A   Clear
2:53 PM 57.9 °F - 8.1 °F 14% 29.83 in 10.0 mi Calm Calm - N/A   Clear
3:53 PM 61.0 °F - 10.9 °F 14% 29.80 in 10.0 mi Variable 3.5 mph - N/A   Clear
4:53 PM 60.1 °F - 6.1 °F 12% 29.81 in 10.0 mi North 19.6 mph 26.5 mph 0.00 in   Clear
5:53 PM 57.9 °F - 6.1 °F 13% 29.81 in 10.0 mi WNW 16.1 mph 24.2 mph 0.00 in   Clear
6:53 PM 51.1 °F - 15.1 °F 24% 29.88 in 10.0 mi WSW 16.1 mph - N/A   Clear
7:53 PM 46.0 °F 43.9 °F 16.0 °F 30% 29.93 in 10.0 mi WSW 4.6 mph - N/A   Clear
8:53 PM 43.0 °F 39.5 °F 15.1 °F 32% 29.91 in 10.0 mi West 5.8 mph - N/A   Clear
9:53 PM 44.1 °F 41.5 °F 15.1 °F 31% 29.89 in 10.0 mi NNE 4.6 mph - N/A   Clear
10:53 PM 39.9 °F 36.7 °F 16.0 °F 38% 29.91 in 10.0 mi NNE 4.6 mph - N/A   Clear
11:53 PM 39.0 °F 36.8 °F 16.0 °F 39% 29.90 in 10.0 mi NW 3.5 mph - N/A   Clear